Location: Skalnate Pleso
(49.1889°N, 20.2450°E)
Time: 03:03:05
(UTC+02:00)

Cosmos 1605 Rocket - Pass Details

Date: 22 February 2020
Orbit: 944 x 1007 km, 82.9° (Epoch: 01 April)

Event Time Altitude Azimuth Distance (km) Brightness Sun altitude
Rises 19:02:57 0° 259° (W) 3,728 8.4 -19.2°
Reaches altitude 10° 19:08:22 10° 297° (WNW) 2,774 7.4 -20.1°
Maximum altitude 19:09:35 11° 308° (NW) 2,733 7.2 -20.2°
Drops below altitude 10° 19:10:49 10° 319° (NW) 2,770 7.0 -20.4°
Sets 19:16:14 0° 358° (N) 3,708 7.2 -21.3°
